Benson, MN

2:43 AM CST on February 19, 2018 (GMT -0600)
Benson Municipal

Weather History for KBBB - June, 2013

Change the Weather History Date:

Monday, June 24, 2013

  Actual Average Record
Temperature  
Mean Temperature 68 °F -  
Max Temperature 80 °F 80 °F 104 °F (1988)
Min Temperature 55 °F 58 °F 43 °F (1960)
Cooling Degree Days 2    
Growing Degree Days 18 (Base 50)    
Moisture  
Dew Point 64 °F    
Average Humidity 82    
Maximum Humidity 100    
Minimum Humidity 61    
Precipitation  
Precipitation 0.00 in - - ()
Sea Level Pressure  
Sea Level Pressure 29.84 in    
Wind  
Wind Speed 5 mph (South)    
Max Wind Speed 15 mph    
Max Gust Speed 21 mph    
Visibility 10 miles    
Events      
Averages and records for this station are not official NWS values.
T = Trace of Precipitation, MM = Missing Value Source: NWS Daily Summary

Daily Weather History Graph

Daily Weather History Graph

Search for Another Location

Airport or City:

Trip Planner

Search our weather history database for the weather conditions in past years. The results will help you decide how hot, cold, wet, or windy it might be!

Date:

Astronomy

Jun. 24, 2013 Rise Set
Actual Time 5:35 AM CDT 9:14 PM CDT
Civil Twilight 4:57 AM CDT 9:52 PM CDT
Nautical Twilight 4:07 AM CDT 10:42 PM CDT
Astronomical Twilight 2:59 AM CDT 11:50 PM CDT
Moon 10:10 PM CDT (6/24) 7:09 AM CDT (6/24)
Length of Visible Light 16h 54m
Length of Day
15h 39m
Full, 98% of the Moon is Illuminated
Jun 24
Full
Jun 29
Last Quarter
Jul 8
New
Jul 15
First Quarter
Jul 22
Full

Hourly Weather History & Observations

Time (CDT) Temp. Heat Index Dew Point Humidity Pressure Visibility Wind Dir Wind Speed Gust Speed Precip Events Conditions
12:12 AM 62.6 °F - 60.8 °F 94% 29.88 in 10.0 mi Calm Calm - N/A   Clear
12:33 AM 62.6 °F - 60.8 °F 94% 29.88 in 10.0 mi SSW 3.5 mph - N/A   Clear
12:53 AM 60.8 °F - 59.0 °F 94% 29.89 in 10.0 mi SSW 5.8 mph - N/A   Clear
1:12 AM 62.6 °F - 60.8 °F 94% 29.89 in 10.0 mi SSW 5.8 mph - N/A   Clear
1:33 AM 62.6 °F - 60.8 °F 94% 29.90 in 10.0 mi SSW 5.8 mph - N/A   Clear
1:53 AM 60.8 °F - 59.0 °F 94% 29.89 in 10.0 mi SSW 4.6 mph - N/A   Clear
2:12 AM 60.8 °F - 59.0 °F 94% 29.89 in 10.0 mi SSW 5.8 mph - N/A   Clear
2:33 AM 62.6 °F - 60.8 °F 94% 29.89 in 10.0 mi SW 5.8 mph - N/A   Clear
2:52 AM 62.6 °F - 59.0 °F 88% 29.89 in 10.0 mi SW 3.5 mph - N/A   Clear
3:12 AM 60.8 °F - 57.2 °F 88% 29.88 in 10.0 mi Calm Calm - N/A   Clear
3:33 AM 60.8 °F - 59.0 °F 94% 29.87 in 10.0 mi South 3.5 mph - N/A   Clear
3:52 AM 59.0 °F - 57.2 °F 94% 29.86 in 10.0 mi Calm Calm - N/A   Clear
4:13 AM 59.0 °F - 57.2 °F 94% 29.86 in 10.0 mi Calm Calm - N/A   Clear
4:33 AM 57.2 °F - 57.2 °F 100% 29.87 in 10.0 mi Calm Calm - N/A   Clear
4:52 AM 59.0 °F - 57.2 °F 94% 29.88 in 10.0 mi Calm Calm - N/A   Clear
5:13 AM 59.0 °F - 57.2 °F 94% 29.89 in 10.0 mi Calm Calm - N/A   Clear
5:33 AM 55.4 °F - 55.4 °F 100% 29.89 in 7.0 mi Calm Calm - N/A   Clear
5:52 AM 57.2 °F - 55.4 °F 94% 29.89 in 1.8 mi Calm Calm - N/A   Mist
6:13 AM 59.0 °F - 57.2 °F 94% 29.89 in 10.0 mi South 3.5 mph - N/A   Clear
6:32 AM 60.8 °F - 60.8 °F 100% 29.89 in 10.0 mi South 3.5 mph - N/A   Clear
6:52 AM 62.6 °F - 60.8 °F 94% 29.89 in 10.0 mi South 3.5 mph - N/A   Clear
7:13 AM 64.4 °F - 60.8 °F 88% 29.88 in 10.0 mi SSE 3.5 mph - N/A   Clear
7:32 AM 66.2 °F - 62.6 °F 88% 29.86 in 10.0 mi Calm Calm - N/A   Clear
7:52 AM 68.0 °F - 62.6 °F 83% 29.86 in 10.0 mi Calm Calm - N/A   Clear
8:13 AM 69.8 °F - 62.6 °F 78% 29.87 in 10.0 mi South 4.6 mph - N/A   Clear
8:32 AM 69.8 °F - 64.4 °F 83% 29.88 in 10.0 mi South 4.6 mph - N/A   Clear
8:53 AM 71.6 °F - 64.4 °F 78% 29.87 in 10.0 mi South 4.6 mph - N/A   Clear
9:13 AM 71.6 °F - 64.4 °F 78% 29.86 in 10.0 mi SSE 5.8 mph - N/A   Clear
9:32 AM 73.4 °F - 64.4 °F 73% 29.87 in 10.0 mi South 4.6 mph - N/A   Clear
9:53 AM 73.4 °F - 64.4 °F 73% 29.88 in 10.0 mi South 6.9 mph - N/A   Clear
10:13 AM 73.4 °F - 64.4 °F 73% 29.88 in 10.0 mi South 5.8 mph - N/A   Clear
10:32 AM 73.4 °F - 64.4 °F 73% 29.88 in 10.0 mi South 6.9 mph - N/A   Clear
10:53 AM 75.2 °F - 64.4 °F 69% 29.87 in 10.0 mi South 6.9 mph - N/A   Clear
11:12 AM 75.2 °F - 64.4 °F 69% 29.85 in 10.0 mi South 8.1 mph - N/A   Clear
11:32 AM 75.2 °F - 64.4 °F 69% 29.83 in 10.0 mi South 6.9 mph - N/A   Clear
11:53 AM 75.2 °F - 64.4 °F 69% 29.82 in 10.0 mi South 8.1 mph - N/A   Clear
12:12 PM 75.2 °F - 64.4 °F 69% 29.82 in 10.0 mi South 8.1 mph - N/A   Clear
12:32 PM 77.0 °F - 66.2 °F 69% 29.83 in 10.0 mi South 9.2 mph - N/A   Clear
12:53 PM 78.8 °F - 66.2 °F 65% 29.83 in 10.0 mi South 9.2 mph 16.1 mph N/A   Clear
1:12 PM 78.8 °F - 66.2 °F 65% 29.82 in 10.0 mi South 6.9 mph - N/A   Clear
1:32 PM 78.8 °F - 66.2 °F 65% 29.81 in 10.0 mi SE 8.1 mph - N/A   Clear
1:53 PM 80.6 °F 82.7 °F 66.2 °F 61% 29.81 in 10.0 mi SE 9.2 mph - N/A   Clear
2:12 PM 78.8 °F - 66.2 °F 65% 29.82 in 10.0 mi SSE 12.7 mph - N/A   Clear
2:32 PM 78.8 °F - 66.2 °F 65% 29.81 in 10.0 mi SSE 13.8 mph - N/A   Clear
2:53 PM 78.8 °F - 66.2 °F 65% 29.80 in 10.0 mi SSE 9.2 mph - N/A   Clear
3:12 PM 78.8 °F - 66.2 °F 65% 29.79 in 10.0 mi SSE 8.1 mph - N/A   Clear
3:32 PM 78.8 °F - 68.0 °F 69% 29.81 in 10.0 mi SSE 13.8 mph 18.4 mph N/A   Clear
3:53 PM 78.8 °F - 69.8 °F 74% 29.81 in 10.0 mi South 11.5 mph - N/A   Clear
4:12 PM 78.8 °F - 69.8 °F 74% 29.81 in 10.0 mi South 15.0 mph 20.7 mph N/A   Clear
4:33 PM 78.8 °F - 69.8 °F 74% 29.80 in 10.0 mi South 13.8 mph - N/A   Clear
4:53 PM 75.2 °F - 69.8 °F 83% 29.80 in 10.0 mi SSE 11.5 mph 18.4 mph N/A   Clear
5:12 PM 75.2 °F - 69.8 °F 83% 29.79 in 10.0 mi South 8.1 mph - N/A   Clear
5:33 PM 75.2 °F - 68.0 °F 78% 29.78 in 10.0 mi South 4.6 mph 9.2 mph N/A   Clear
5:53 PM 75.2 °F - 66.2 °F 73% 29.78 in 10.0 mi SE 4.6 mph - N/A   Clear
6:12 PM 75.2 °F - 68.0 °F 78% 29.77 in 10.0 mi South 6.9 mph - N/A   Clear
6:33 PM 75.2 °F - 68.0 °F 78% 29.77 in 10.0 mi South 5.8 mph - N/A   Clear
6:53 PM 75.2 °F - 68.0 °F 78% 29.78 in 10.0 mi South 6.9 mph - N/A   Clear
7:12 PM 75.2 °F - 69.8 °F 83% 29.79 in 10.0 mi South 6.9 mph - N/A   Clear
7:33 PM 75.2 °F - 69.8 °F 83% 29.79 in 10.0 mi South 4.6 mph - N/A   Clear
7:53 PM 75.2 °F - 69.8 °F 83% 29.79 in 10.0 mi Calm Calm - N/A   Clear
8:12 PM 75.2 °F - 69.8 °F 83% 29.78 in 10.0 mi SE 6.9 mph - N/A   Clear
8:33 PM 75.2 °F - 69.8 °F 83% 29.78 in 10.0 mi SSE 8.1 mph - N/A   Clear
8:53 PM 73.4 °F - 68.0 °F 83% 29.78 in 10.0 mi South 5.8 mph - N/A   Clear
9:12 PM 73.4 °F - 68.0 °F 83% 29.78 in 10.0 mi South 5.8 mph - N/A   Clear
9:33 PM 71.6 °F - 66.2 °F 83% 29.78 in 10.0 mi South 6.9 mph - N/A   Clear
9:52 PM 71.6 °F - 66.2 °F 83% 29.78 in 10.0 mi South 6.9 mph - N/A   Clear
10:12 PM 71.6 °F - 66.2 °F 83% 29.79 in 10.0 mi South 4.6 mph - N/A   Clear
10:33 PM 69.8 °F - 66.2 °F 88% 29.79 in 10.0 mi SSE 6.9 mph - N/A   Clear
10:52 PM 69.8 °F - 66.2 °F 88% 29.79 in 10.0 mi SSE 3.5 mph - N/A   Clear
11:13 PM 69.8 °F - 66.2 °F 88% 29.79 in 10.0 mi SSE 6.9 mph - N/A   Clear
11:33 PM 69.8 °F - 66.2 °F 88% 29.79 in 10.0 mi SSE 6.9 mph - N/A   Clear
11:52 PM 69.8 °F - 66.2 °F 88% 29.78 in 10.0 mi SSE 8.1 mph - N/A   Clear